Flag for Germany Weather past 2 weeks in Pinneberg, Schleswig-Holstein, Germany

Now
55 °F

Broken clouds.


Feels Like: 53 °F
Forecast: 46 / 57 °F
Wind: 10 mph from Northwest

Location: Hamburg-Fuhlsbuettel

Current Time: May 25, 2015 at 4:27:35 PM

Latest Report: May 25, 2015 at 3:50 PM


Visibility: N/A

Pressure: 29.92 "Hg

Humidity: 67%

Dew point: 45 °F

Location of PinnebergLocation

Historic Weather in Pinneberg — Graph

°F

Pinneberg temperature yesterday

Maximum temperature yesterday: 64 °F (at 3:50 PM)
Minimum temperature yesterday: 37 °F (at 3:50 AM)
Average temperature yesterday: 52 °F

Past Weeks' High & Low Weather Summary

 TemperatureHumidityPressure
High73 °F (May 11, 3:20 PM)100% (May 21, 2:20 AM)30.33 "Hg (May 21, 2:20 AM)
Low37 °F (May 24, 3:50 AM)38% (May 10, 7:20 PM)29.56 "Hg (May 19, 2:20 AM)
Average52 °F74%30.02 "Hg
* Reported May 10 3:20 PM — May 25 3:20 PM, Pinneberg, Weather by CustomWeather, © 2015

Note: Actual official high and low records may vary slightly from our data, if they occured in-between our weather recording intervals... More about our weather records

Advertising

Pinneberg weather history for previous 24 hours

 ConditionsComfort  
Time TempWeatherWind HumidityBarometerVisibility
3:20 PM
Mon, May 25
55 °FBroken clouds.10 mph67%29.92 "HgN/A
2:50 PM55 °FPartly sunny.14 mph72%29.92 "HgN/A
2:20 PM55 °FPartly sunny.13 mph77%29.92 "HgN/A
1:50 PM55 °FBroken clouds.14 mph72%29.92 "HgN/A
1:20 PM57 °FBroken clouds.12 mph67%29.92 "HgN/A
12:50 PM55 °FBroken clouds.10 mph72%29.92 "HgN/A
12:20 PM57 °FBroken clouds.7 mph67%29.92 "HgN/A
11:50 AM55 °FBroken clouds.7 mph72%29.92 "HgN/A
11:20 AM55 °FBroken clouds.8 mph77%29.92 "HgN/A
10:50 AM55 °FBroken clouds.8 mph77%29.92 "HgN/A
10:20 AM54 °FPartly sunny.8 mph94%29.92 "HgN/A
9:50 AM54 °FPartly sunny.9 mph88%29.92 "Hg6 mi
9:20 AM54 °FBroken clouds.7 mph88%29.92 "HgN/A
8:50 AM54 °FBroken clouds.6 mph82%29.92 "HgN/A
8:20 AM54 °FPartly sunny.8 mph82%29.92 "HgN/A
7:50 AM54 °FPartly sunny.3 mph82%29.92 "HgN/A
7:20 AM52 °FPartly sunny.3 mph94%29.92 "HgN/A
6:50 AM50 °FBroken clouds.1 mph94%29.92 "HgN/A
6:20 AM50 °FLight rain. Broken clouds.No wind88%29.92 "HgN/A
5:50 AM48 °FClear.1 mph94%29.92 "Hg10 mi
5:20 AM48 °FLight rain. Clear.No wind94%29.92 "HgN/A
4:50 AM48 °FClear.3 mph87%29.92 "Hg10 mi
4:20 AM48 °FClear.5 mph94%29.95 "Hg10 mi
3:50 AM46 °FClear.3 mph87%29.95 "Hg10 mi
3:20 AM45 °FClear.3 mph93%29.95 "Hg10 mi
2:50 AM46 °FClear.6 mph93%29.95 "Hg10 mi
2:20 AM45 °FClear.2 mph93%29.95 "Hg10 mi
1:50 AM45 °FClear.1 mph93%29.95 "Hg10 mi
1:20 AM46 °FFog.1 mph93%29.98 "HgN/A
12:50 AM46 °FClear.1 mph93%29.98 "Hg10 mi
12:20 AM46 °FClear.1 mph93%29.98 "Hg10 mi
11:20 PM
Sun, May 24
50 °FClear.No wind82%29.98 "Hg10 mi
10:50 PM52 °FClear.2 mph77%30.01 "Hg10 mi
10:20 PM54 °FSunny.3 mph72%30.01 "Hg10 mi
9:50 PM57 °FSunny.3 mph59%30.01 "Hg10 mi
9:20 PM59 °FSunny.6 mph55%30.01 "Hg10 mi
8:50 PM63 °FSunny.6 mph45%30.01 "Hg10 mi
8:20 PM63 °FSunny.7 mph42%30.01 "Hg10 mi
7:50 PM64 °FPassing clouds.8 mph40%30.01 "HgN/A
7:20 PM64 °FPassing clouds.7 mph43%30.01 "HgN/A
6:50 PM64 °FPassing clouds.9 mph40%30.01 "HgN/A
6:20 PM64 °FPassing clouds.9 mph43%30.01 "HgN/A
5:50 PM64 °FPassing clouds.8 mph43%30.04 "HgN/A
5:20 PM64 °FPassing clouds.7 mph43%30.04 "HgN/A
4:50 PM64 °FPassing clouds.9 mph46%30.04 "HgN/A
4:20 PM64 °FPassing clouds.8 mph46%30.04 "HgN/A
Weather by CustomWeather, © 2015

See weather overviewHow to use our weather pages